| time (UTC) | temp F | wind direction | speed MPH | gust MPH | rain 1hr in | rain 24hr in | rain mn in | humidity % | barometer mb |
| 20260902011535 | 58 | 73 | 0.0 | 1.0 | 0.00 | 0.06 | 0.06 | 94 | 1015.5 |
| 20260902010040 | 58 | 73 | 0.0 | 1.0 | 0.00 | 0.06 | 0.06 | 94 | 1015.8 |
| 20260902004532 | 58 | 73 | 0.0 | 0.0 | 0.00 | 0.06 | 0.06 | 94 | 1016.0 |
| 20260902003031 | 59 | 73 | 0.0 | 0.0 | 0.00 | 0.06 | 0.06 | 94 | 1016.0 |
| 20260902001529 | 59 | 73 | 0.0 | 0.0 | 0.00 | 0.06 | 0.06 | 94 | 1015.8 |
| 20260902000028 | 59 | 73 | 0.0 | 1.0 | 0.00 | 0.06 | 0.06 | 94 | 1015.5 |
| 20260901234526 | 60 | 73 | 0.0 | 3.0 | 0.01 | 0.06 | 0.06 | 94 | 1015.4 |
| 20260901233027 | 60 | 84 | 0.0 | 0.0 | 0.01 | 0.06 | 0.06 | 95 | 1015.4 |
| 20260901231528 | 60 | 84 | 0.0 | 0.0 | 0.01 | 0.06 | 0.06 | 94 | 1015.5 |
| 20260901230023 | 61 | 84 | 0.0 | 0.0 | 0.01 | 0.06 | 0.06 | 94 | 1015.5 |
| 20260901224521 | 61 | 84 | 0.0 | 2.0 | 0.00 | 0.05 | 0.05 | 94 | 1015.4 |
| 20260901223021 | 61 | 84 | 0.0 | 0.0 | 0.00 | 0.05 | 0.05 | 94 | 1015.5 |
| 20260901221519 | 62 | 84 | 0.0 | 0.0 | 0.00 | 0.05 | 0.05 | 93 | 1015.8 |
| 20260901220018 | 62 | 84 | 0.0 | 1.0 | 0.00 | 0.05 | 0.05 | 94 | 1015.6 |
| 20260901214517 | 63 | 84 | 0.0 | 1.0 | 0.00 | 0.05 | 0.05 | 94 | 1015.6 |
| 20260901213024 | 63 | 85 | 0.0 | 2.0 | 0.01 | 0.05 | 0.05 | 95 | 1015.4 |
| 20260901211517 | 63 | 85 | 0.0 | 0.0 | 0.01 | 0.05 | 0.05 | 94 | 1015.3 |
| 20260901210015 | 63 | 158 | 0.0 | 0.0 | 0.01 | 0.05 | 0.05 | 94 | 1015.1 |
| 20260901204517 | 63 | 159 | 0.0 | 0.0 | 0.01 | 0.05 | 0.05 | 94 | 1015.1 |
| 20260901203015 | 63 | 161 | 0.0 | 0.0 | 0.00 | 0.04 | 0.04 | 94 | 1015.0 |
| 20260901201514 | 63 | 162 | 0.0 | 1.0 | 0.00 | 0.04 | 0.04 | 94 | 1015.0 |
| 20260901200017 | 63 | 162 | 0.0 | 3.0 | 0.01 | 0.04 | 0.04 | 93 | 1014.9 |
| 20260901194512 | 63 | 169 | 0.0 | 1.0 | 0.04 | 0.04 | 0.04 | 94 | 1015.0 |
| 20260901193011 | 63 | 169 | 0.0 | 1.0 | 0.04 | 0.04 | 0.04 | 92 | 1014.8 |
| 20260901191515 | 63 | 169 | 0.0 | 1.0 | 0.04 | 0.04 | 0.04 | 92 | 1014.7 |
| 20260901190015 | 63 | 173 | 0.0 | 0.0 | 0.03 | 0.03 | 0.03 | 91 | 1014.6 |
| 20260901184510 | 64 | 173 | 0.0 | 1.0 | 0.00 | 0.00 | 0.00 | 87 | 1014.7 |
| 20260901183020 | 65 | 168 | 0.0 | 3.0 | 0.00 | 0.00 | 0.00 | 86 | 1014.9 |
| 20260901181507 | 65 | 141 | 0.0 | 2.0 | 0.00 | 0.00 | 0.00 | 84 | 1014.8 |
| 20260901180014 | 66 | 236 | 0.0 | 1.0 | 0.00 | 0.00 | 0.00 | 83 | 1014.8 |
| 20260901174506 | 68 | 236 | 0.0 | 1.0 | 0.00 | 0.00 | 0.00 | 84 | 1014.9 |
| 20260901173005 | 68 | 256 | 0.0 | 3.0 | 0.00 | 0.00 | 0.00 | 81 | 1014.9 |
| 20260901171506 | 69 | 84 | 0.0 | 4.0 | 0.00 | 0.00 | 0.00 | 80 | 1014.5 |
| 20260901170004 | 69 | 122 | 0.0 | 3.0 | 0.00 | 0.00 | 0.00 | 78 | 1014.6 |
| 20260901164502 | 69 | 91 | 1.0 | 4.0 | 0.00 | 0.00 | 0.00 | 75 | 1014.7 |
| 20260901163002 | 69 | 123 | 0.0 | 3.0 | 0.00 | 0.00 | 0.00 | 77 | 1014.6 |
| 20260901161501 | 70 | 50 | 0.0 | 1.0 | 0.00 | 0.00 | 0.00 | 79 | 1014.8 |
| 20260901160001 | 70 | 36 | 0.0 | 4.0 | 0.00 | 0.00 | 0.00 | 74 | 1014.7 |
| 20260901154604 | 70 | 165 | 1.0 | 6.0 | 0.00 | 0.00 | 0.00 | 75 | 1014.8 |
| 20260901153057 | 70 | 108 | 0.0 | 3.0 | 0.00 | 0.00 | 0.00 | 80 | 1014.9 |
| 20260901151600 | 70 | 100 | 1.0 | 6.0 | 0.00 | 0.00 | 0.00 | 82 | 1015.0 |
| 20260901150055 | 69 | 157 | 0.0 | 2.0 | 0.00 | 0.00 | 0.00 | 86 | 1015.2 |
| 20260901144550 | 69 | 142 | 0.0 | 3.0 | 0.00 | 0.00 | 0.00 | 87 | 1015.3 |
| 20260901143049 | 69 | 213 | 0.0 | 0.0 | 0.00 | 0.00 | 0.00 | 91 | 1015.2 |
| 20260901141549 | 69 | 213 | 0.0 | 0.0 | 0.00 | 0.00 | 0.00 | 90 | 1015.2 |
| 20260901140047 | 68 | 215 | 0.0 | 0.0 | 0.00 | 0.00 | 0.00 | 90 | 1015.0 |
| 20260901134547 | 69 | 235 | 0.0 | 0.0 | 0.00 | 0.00 | 0.00 | 92 | 1015.2 |
| 20260901133047 | 68 | 237 | 0.0 | 0.0 | 0.00 | 0.00 | 0.00 | 91 | 1015.0 |
| 20260901131544 | 68 | 237 | 0.0 | 0.0 | 0.00 | 0.00 | 0.00 | 91 | 1015.1 |
| 20260901130041 | 68 | 237 | 0.0 | 0.0 | 0.00 | 0.00 | 0.00 | 91 | 1015.1 |
| 20260901124540 | 68 | 237 | 0.0 | 0.0 | 0.00 | 0.00 | 0.00 | 91 | 1015.0 |
| 20260901123041 | 67 | 238 | 0.0 | 0.0 | 0.00 | 0.00 | 0.00 | 92 | 1014.9 |
| 20260901121540 | 67 | 238 | 0.0 | 0.0 | 0.00 | 0.00 | 0.00 | 92 | 1015.0 |
| 20260901120036 | 66 | 238 | 0.0 | 0.0 | 0.00 | 0.00 | 0.00 | 93 | 1015.2 |
| 20260901114533 | 66 | 238 | 0.0 | 0.0 | 0.00 | 0.00 | 0.00 | 93 | 1015.1 |
| 20260901113033 | 65 | 238 | 0.0 | 0.0 | 0.00 | 0.00 | 0.00 | 93 | 1014.9 |
| 20260901111528 | 65 | 238 | 0.0 | 0.0 | 0.00 | 0.00 | 0.00 | 93 | 1014.7 |
| 20260901110027 | 65 | 238 | 0.0 | 0.0 | 0.00 | 0.00 | 0.00 | 93 | 1014.7 |
| 20260901104527 | 65 | 238 | 0.0 | 0.0 | 0.00 | 0.00 | 0.00 | 92 | 1014.6 |
| 20260901103025 | 64 | 238 | 0.0 | 0.0 | 0.00 | 0.00 | 0.00 | 92 | 1014.3 |
| 20260901101524 | 64 | 238 | 0.0 | 0.0 | 0.00 | 0.00 | 0.00 | 91 | 1014.5 |
| 20260901100023 | 65 | 238 | 0.0 | 0.0 | 0.00 | 0.00 | 0.00 | 91 | 1014.3 |
| 20260901094523 | 64 | 238 | 0.0 | 0.0 | 0.00 | 0.00 | 0.00 | 91 | 1014.2 |
| 20260901093021 | 64 | 238 | 0.0 | 0.0 | 0.00 | 0.00 | 0.00 | 91 | 1014.2 |
| 20260901091520 | 64 | 238 | 0.0 | 0.0 | 0.00 | 0.00 | 0.00 | 90 | 1014.3 |
| 20260901090018 | 64 | 238 | 0.0 | 0.0 | 0.00 | 0.00 | 0.00 | 89 | 1014.5 |
| 20260901084514 | 64 | 238 | 0.0 | 0.0 | 0.00 | 0.00 | 0.00 | 89 | 1014.8 |
| 20260901083014 | 63 | 238 | 0.0 | 0.0 | 0.00 | 0.00 | 0.00 | 88 | 1015.0 |
| 20260901081512 | 63 | 238 | 0.0 | 0.0 | 0.00 | 0.00 | 0.00 | 89 | 1014.9 |
| 20260901080012 | 63 | 238 | 0.0 | 0.0 | 0.00 | 0.00 | 0.00 | 89 | 1014.7 |
| 20260901074510 | 63 | 238 | 0.0 | 0.0 | 0.00 | 0.00 | 0.00 | 90 | 1014.9 |
| 20260901073009 | 63 | 238 | 0.0 | 0.0 | 0.00 | 0.00 | 0.00 | 90 | 1015.0 |
| 20260901071508 | 63 | 238 | 0.0 | 1.0 | 0.00 | 0.00 | 0.00 | 90 | 1015.2 |
| 20260901070010 | 63 | 240 | 0.0 | 1.0 | 0.00 | 0.00 | 0.00 | 90 | 1015.3 |
| 20260901064506 | 62 | 240 | 0.0 | 1.0 | 0.00 | 0.00 | 0.00 | 90 | 1015.4 |
| 20260901063014 | 62 | 240 | 0.0 | 2.0 | 0.00 | 0.00 | 0.00 | 91 | 1015.3 |
| 20260901061506 | 62 | 240 | 0.0 | 0.0 | 0.00 | 0.00 | 0.00 | 91 | 1015.3 |
| 20260901060010 | 62 | 240 | 0.0 | 0.0 | 0.00 | 0.07 | 0.00 | 91 | 1015.4 |
| 20260901054503 | 62 | 240 | 0.0 | 0.0 | 0.00 | 0.07 | 0.00 | 91 | 1015.6 |
| 20260901053004 | 62 | 240 | 0.0 | 1.0 | 0.00 | 0.07 | 0.00 | 91 | 1015.5 |
| 20260901051607 | 62 | 240 | 0.0 | 0.0 | 0.00 | 0.07 | 0.00 | 90 | 1015.5 |
| 20260901050059 | 63 | 240 | 0.0 | 0.0 | 0.00 | 0.07 | 0.00 | 90 | 1015.5 |
| 20260901044604 | 63 | 250 | 0.0 | 0.0 | 0.00 | 0.23 | 0.00 | 89 | 1015.7 |
| 20260901043055 | 63 | 250 | 0.0 | 0.0 | 0.00 | 0.23 | 0.00 | 89 | 1015.8 |
| 20260901041616 | 63 | 250 | 0.0 | 0.0 | 0.00 | 0.23 | 0.00 | 89 | 1015.8 |
| 20260901040127 | 63 | 250 | 0.0 | 0.0 | 0.00 | 0.23 | 0.00 | 90 | 1015.8 |
| 20260901034551 | 63 | 250 | 0.0 | 0.0 | 0.00 | 0.26 | 0.23 | 90 | 1015.8 |
| 20260901033050 | 63 | 250 | 0.0 | 0.0 | 0.00 | 0.26 | 0.23 | 90 | 1015.7 |
| 20260901031550 | 63 | 250 | 0.0 | 1.0 | 0.00 | 0.26 | 0.23 | 90 | 1015.9 |
| 20260901030049 | 64 | 250 | 0.0 | 1.0 | 0.00 | 0.26 | 0.23 | 90 | 1015.8 |
| 20260901024553 | 64 | 250 | 0.0 | 1.0 | 0.00 | 0.27 | 0.23 | 89 | 1016.0 |
| 20260901023050 | 64 | 250 | 0.0 | 1.0 | 0.00 | 0.27 | 0.23 | 89 | 1015.9 |
| 20260901021548 | 64 | 250 | 0.0 | 0.0 | 0.00 | 0.27 | 0.23 | 88 | 1016.0 |
| 20260901020047 | 64 | 250 | 0.0 | 1.0 | 0.00 | 0.27 | 0.23 | 88 | 1016.1 |
| 20260901014546 | 64 | 151 | 0.0 | 0.0 | 0.00 | 0.27 | 0.23 | 88 | 1016.1 |
| 20260901013054 | 64 | 163 | 0.0 | 1.0 | 0.00 | 0.27 | 0.23 | 88 | 1016.0 |